Phoenix, AZ

11:17 AM MST on August 28, 2016 (GMT -0700)
Phoenix Sky Harbor International

Weather History for KPHX - June, 2012

Change the Weather History Date:

Tuesday, June 26, 2012

  Actual Average Record
Temperature  
Mean Temperature 100 °F 93 °F  
Max Temperature 110 °F 106 °F 122 °F (1990)
Min Temperature 89 °F 81 °F 62 °F (1963)
Degree Days  
Heating Degree Days 0 0  
Month to date heating degree days 0 0  
Since 1 June heating degree days 0 0  
Since 1 July heating degree days 837 935  
Cooling Degree Days 35 28  
Month to date cooling degree days 730 658  
Year to date cooling degree days 1782 1544  
Since 1 June cooling degree days 730 658  
Growing Degree Days 49 (Base 50)    
Moisture  
Dew Point 50 °F    
Average Humidity 20    
Maximum Humidity 26    
Minimum Humidity 14    
Precipitation  
Precipitation 0.00 in 0.00 in 0.07 in (1927)
Month to date precipitation 0.00 0.01  
Year to date precipitation 0.36 3.22  
Snow  
Snow 0.00 in - - ()
Month to date snowfall 0.0  
Year to date snowfall 0.0  
Since 1 July snowfall 0.0  
Snow Depth 0.00 in    
Sea Level Pressure  
Sea Level Pressure 29.65 in    
Wind  
Wind Speed 6 mph (WSW)    
Max Wind Speed 26 mph    
Max Gust Speed 35 mph    
Visibility 10 miles    
Events      
T = Trace of Precipitation, MM = Missing Value Source: NWS Daily Summary

Daily Weather History Graph

Daily Weather History Graph

Search for Another Location

Airport or City:

Trip Planner

Search our weather history database for the weather conditions in past years. The results will help you decide how hot, cold, wet, or windy it might be!

Date:

Astronomy

Jun. 26, 2012 Rise Set
Actual Time 5:20 AM MST 7:41 PM MST
Civil Twilight 4:51 AM MST 8:10 PM MST
Nautical Twilight 4:15 AM MST 8:46 PM MST
Astronomical Twilight 3:37 AM MST 9:24 PM MST
Moon 12:17 PM MST (6/26) No Moon Set
Length of Visible Light 15h 19m
Length of Day
14h 21m
Waxing Crescent, 46% of the Moon is Illuminated
Jun 26
Waxing Crescent
Jun 26
First Quarter
Jul 3
Full
Jul 10
Last Quarter
Jul 18
New

Hourly Weather History & Observations

Time (MST) Temp. Heat Index Dew Point Humidity Pressure Visibility Wind Dir Wind Speed Gust Speed Precip Events Conditions
12:51 AM 95.0 °F - 48.9 °F 21% 29.68 in 10.0 mi West 13.8 mph - N/A   Scattered Clouds
1:51 AM 95.0 °F - 48.9 °F 21% 29.69 in 10.0 mi West 9.2 mph - N/A   Scattered Clouds
2:51 AM 93.9 °F - 48.0 °F 21% 29.68 in 10.0 mi West 8.1 mph - N/A   Scattered Clouds
3:51 AM 91.9 °F - 48.0 °F 22% 29.68 in 10.0 mi West 6.9 mph - N/A   Partly Cloudy
4:51 AM 89.1 °F - 50.0 °F 26% 29.69 in 10.0 mi SW 4.6 mph - N/A   Partly Cloudy
5:51 AM 91.0 °F - 48.0 °F 23% 29.70 in 10.0 mi West 4.6 mph - N/A   Scattered Clouds
6:51 AM 91.9 °F - 46.9 °F 21% 29.71 in 10.0 mi West 3.5 mph - N/A   Partly Cloudy
7:51 AM 93.9 °F - 46.9 °F 20% 29.73 in 10.0 mi Calm Calm - N/A   Partly Cloudy
8:51 AM 98.1 °F - 46.0 °F 17% 29.72 in 10.0 mi Variable 3.5 mph - N/A   Partly Cloudy
9:51 AM 100.0 °F - 45.0 °F 15% 29.72 in 10.0 mi WNW 4.6 mph - N/A   Scattered Clouds
10:51 AM 100.9 °F - 45.0 °F 15% 29.70 in 10.0 mi WSW 5.8 mph - N/A   Partly Cloudy
11:51 AM 102.9 °F - 48.9 °F 16% 29.69 in 10.0 mi Calm Calm - N/A   Partly Cloudy
12:51 PM 104.0 °F - 50.0 °F 16% 29.66 in 10.0 mi Calm Calm - N/A   Partly Cloudy
1:51 PM 109.0 °F - 51.1 °F 15% 29.63 in 10.0 mi Variable 4.6 mph 18.4 mph N/A   Partly Cloudy
2:51 PM 108.0 °F - 50.0 °F 15% 29.61 in 10.0 mi NW 6.9 mph - N/A   Partly Cloudy
3:51 PM 109.0 °F - 50.0 °F 14% 29.59 in 10.0 mi NNW 5.8 mph - N/A   Partly Cloudy
4:51 PM 108.0 °F - 48.9 °F 14% 29.56 in 10.0 mi West 13.8 mph 20.7 mph N/A   Partly Cloudy
5:51 PM 108.0 °F - 50.0 °F 15% 29.56 in 10.0 mi West 12.7 mph 19.6 mph N/A   Partly Cloudy
6:51 PM 106.0 °F - 51.1 °F 16% 29.57 in 10.0 mi West 9.2 mph - N/A   Scattered Clouds
7:51 PM 104.0 °F - 51.1 °F 17% 29.59 in 10.0 mi SW 10.4 mph - N/A   Mostly Cloudy
8:08 PM 100.4 °F 98.8 °F 55.4 °F 22% 29.68 in 5.0 mi South 17.3 mph 34.5 mph N/A   Widespread Dust
8:43 PM 98.6 °F 97.2 °F 55.4 °F 24% 29.68 in 6.0 mi South 18.4 mph 28.8 mph N/A   Widespread Dust
8:51 PM 98.1 °F 96.4 °F 55.9 °F 24% 29.62 in 6.0 mi South 15.0 mph 24.2 mph N/A   Widespread Dust
9:51 PM 99.0 °F 96.9 °F 54.0 °F 22% 29.62 in 10.0 mi Variable 5.8 mph - N/A   Mostly Cloudy
10:51 PM 100.0 °F 97.9 °F 54.0 °F 21% 29.62 in 10.0 mi South 3.5 mph - N/A   Mostly Cloudy
11:51 PM 99.0 °F 96.5 °F 53.1 °F 21% 29.62 in 10.0 mi Calm Calm - N/A   Mostly Cloudy